Temperature
7 6 6 6 6 7 7 6 7 7 8 7 7 7 8 8 8 7 8 9 9 10 10 10 10 10 10 10 10 10 9 9 9 9 9 9 9 9 9 9 9 9 9 9
5 5 6 7 6 6 6 6 6 7 7 7 6 6 7 7 7 8 8 8 9 9 9 9 9 9 10 10 9 9 9 9 9 9 9 9 9 9 9 9 9 9 9 8
6 6 7 7 6 6 6 6 6 6 7 7 6 6 7 7 7 8 8 8 9 9 9 9 9 9 9 9 9 9 9 9 9 8 8 8 8 8 8 8 8 8 8 8
5 6 6 6 6 6 6 6 6 6 6 5 6 6 6 6 6 6 7 7 8 8 9 9 9 9 9 9 9 9 9 9 8 8 8 8 8 8 8 8 8 8 8 8
5 5 6 6 6 6 6 6 6 6 5 5 5 5 6 6 6 6 6 7 8 8 8 8 9 9 9 9 9 9 8 8 8 8 8 8 7 7 8 7 7 8 7 7
5 5 6 6 6 6 6 5 5 4 4 5 5 5 5 5 6 6 6 7 7 8 8 8 8 9 8 8 8 8 8 8 8 7 7 7 7 7 7 7 7 7 7 7
4 5 5 6 5 5 5 5 4 4 4 5 5 5 5 6 6 6 6 6 7 7 7 7 8 8 8 8 8 7 7 7 7 7 7 7 7 7 7 7 7 7 7 7
3 4 4 5 5 5 5 5 4 5 4 4 4 4 5 5 5 6 6 6 6 6 7 7 7 7 7 7 7 7 7 7 7 7 7 7 7 7 7 7 7 7 6 6
2 3 4 4 5 5 4 4 5 4 3 3 4 4 4 5 4 4 5 5 5 6 6 7 7 7 7 7 7 7 7 7 7 7 7 6 6 6 6 6 6 6 6 6
2 2 3 4 4 4 4 4 3 4 4 4 5 4 4 4 4 4 4 4 5 5 6 6 6 6 6 6 7 6 6 7 7 6 6 6 6 6 6 6 6 6 6 6
1 1 2 3 3 3 3 3 3 3 3 4 4 5 5 4 4 4 3 4 4 5 5 6 6 6 6 6 6 6 6 6 6 6 6 6 6 6 5 5 5 5 5 5
1 0 1 2 3 3 3 3 2 3 3 2 2 4 5 3 3 3 3 4 4 4 5 5 5 5 5 5 5 5 6 6 6 6 6 5 5 5 5 5 5 5 5 5
1 0 1 2 2 2 2 2 2 2 2 1 2 4 4 3 3 3 3 3 3 3 4 4 4 4 4 5 5 5 5 5 5 5 5 5 5 5 5 5 4 4 4 4
2 0 0 1 2 1 1 2 2 1 1 2 2 3 3 3 2 2 2 2 2 3 3 3 3 4 4 4 4 4 4 4 4 4 4 4 4 4 4 4 4 4 4 4
-0 -1 -1 0 1 1 1 1 2 1 2 2 2 2 3 2 2 2 2 2 2 2 2 2 3 3 3 3 3 4 4 4 4 4 4 4 4 4 4 4 4 4 3 3
-1 -1 -1 -0 1 1 1 1 1 1 2 1 2 2 2 1 2 1 1 1 1 1 1 2 2 2 3 3 3 3 3 3 3 3 3 3 3 3 3 3 3 3 3 3
-2 -2 -1 -1 0 1 0 -0 0 0 0 1 1 1 1 0 0 0 1 1 1 1 1 1 2 2 2 2 3 3 3 3 3 3 3 3 3 3 3 3 2 2 2 2
-2 -2 -2 -1 -1 -0 0 -0 -0 0 -0 0 1 1 1 0 0 0 1 1 1 1 1 1 1 2 2 2 2 2 2 2 3 3 2 2 2 2 2 2 2 2 2 2
-2 -2 -2 -2 -1 -1 0 -0 -1 -0 -1 -0 -0 -0 -0 -0 -0 -0 0 0 0 1 1 1 1 1 2 2 2 2 2 2 2 2 2 2 2 2 2 2 1 1 1 1
-2 -3 -3 -2 -1 -1 -1 -1 -1 -0 -1 -1 -1 -1 -1 -1 -1 -1 -0 -0 -0 0 1 1 1 1 1 2 2 2 2 2 2 2 2 2 2 2 1 1 1 1 1 1
-3 -3 -3 -3 -2 -2 -2 -2 -1 -1 -1 -1 -1 -1 -2 -2 -1 -1 -1 -1 -0 -0 0 0 1 1 1 1 1 1 1 1 1 1 1 1 1 1 1 1 1 1 0 0
-3 -3 -3 -3 -3 -2 -2 -2 -2 -2 -1 -2 -2 -2 -2 -2 -2 -1 -1 -1 -1 -0 -0 0 0 0 0 0 1 1 1 1 1 1 1 0 0 0 0 0 0 -0 -0 -0
-4 -3 -3 -3 -2 -2 -3 -2 -2 -2 -2 -2 -2 -2 -2 -2 -2 -2 -2 -1 -1 -1 -1 -0 -0 -0 -0 0 0 0 0 0 0 0 0 -0 -0 -0 -0 -0 -0 -1 -1 -1
-4 -4 -4 -4 -3 -3 -3 -3 -2 -2 -3 -2 -2 -3 -3 -3 -2 -2 -2 -2 -2 -2 -1 -1 -1 -1 -1 -1 -0 -0 -0 -0 -0 -0 -1 -1 -1 -1 -1 -1 -1 -1 -1 -1
-5 -5 -4 -4 -4 -4 -3 -3 -3 -3 -3 -3 -3 -3 -3 -3 -3 -3 -3 -2 -2 -2 -2 -2 -2 -1 -1 -1 -1 -1 -1 -1 -1 -1 -1 -1 -1 -1 -1 -1 -2 -2 -2 -2
-5 -5 -5 -4 -4 -4 -4 -3 -3 -3 -3 -3 -3 -3 -3 -3 -3 -3 -3 -3 -3 -3 -3 -3 -2 -2 -2 -2 -2 -2 -2 -1 -1 -1 -2 -2 -2 -2 -2 -2 -2 -2 -2 -2
Wind_Speed
1 3 8 10 10 5 4 6 8 8 4 4 9 13 12 8 6 8 8 8 8 8 6 5 5 5 5 5 5 6 5 5 5 3 3 2 2 2 2 2 3 5 5 5
1 8 10 5 5 5 5 7 9 7 3 5 7 12 11 9 8 9 10 9 8 6 4 4 5 5 6 6 6 6 6 6 6 5 3 2 2 2 2 2 2 4 5 5
10 6 4 5 5 7 9 10 9 7 5 4 5 9 8 7 6 6 6 7 7 7 7 5 5 6 6 6 7 7 7 6 6 5 3 2 2 2 1 1 1 2 4 4
7 6 3 5 7 8 10 8 8 7 4 5 2 7 7 5 5 6 6 6 6 6 6 5 6 6 6 6 6 6 6 6 6 6 6 5 4 3 3 2 2 2 3 4
6 4 5 8 8 8 6 2 5 6 6 5 4 5 8 3 7 8 7 6 7 6 5 5 5 7 6 6 6 6 6 6 6 6 7 6 4 3 2 2 2 2 1 2
7 4 5 6 4 6 3 1 1 0 2 7 8 7 8 5 8 6 6 6 6 5 4 4 3 3 4 4 4 5 6 6 6 6 6 6 5 4 4 3 3 2 1 1
5 4 3 1 1 1 3 3 0 1 3 8 5 6 9 7 6 7 7 6 5 4 4 3 3 3 3 4 5 5 6 6 6 6 6 6 6 6 6 5 4 3 2 2
3 6 3 1 3 4 6 7 6 5 5 4 3 8 7 5 4 4 4 4 3 3 3 3 3 4 4 4 5 5 6 6 6 6 5 5 4 4 4 4 4 4 3 3
3 6 3 4 3 5 5 6 5 3 1 3 6 6 6 3 2 1 1 1 2 2 2 2 2 2 3 4 4 5 6 5 5 6 5 5 4 4 4 3 3 3 2 2
2 6 5 3 0 2 4 4 3 4 4 5 5 5 4 4 3 2 2 2 2 1 0 0 0 1 3 3 3 3 4 5 5 5 5 4 4 4 4 3 3 3 3 2
2 3 5 2 4 4 2 3 3 3 3 4 4 6 3 4 4 3 3 2 1 1 0 0 1 0 1 2 3 3 3 3 3 4 4 4 4 4 3 3 3 3 3 3
1 1 4 6 4 3 4 4 4 4 4 4 3 6 2 1 0 0 1 1 1 0 1 1 1 2 2 1 2 3 3 3 3 3 3 3 3 3 3 3 3 3 3 3
2 1 3 4 2 2 1 2 3 2 1 4 5 6 2 4 4 3 2 2 2 2 2 2 3 2 1 1 1 1 2 2 3 3 3 3 3 3 3 3 3 3 3 3
3 3 5 7 6 3 5 5 3 3 4 5 7 8 6 4 4 4 4 3 3 2 2 2 2 2 2 1 0 1 1 2 3 3 3 3 3 3 3 3 2 3 3 3
1 3 5 8 9 6 7 9 7 8 7 7 8 7 7 3 2 2 2 3 3 3 3 3 2 2 2 2 1 0 0 2 3 3 3 3 2 2 3 3 3 3 3 3
1 3 3 6 6 6 7 8 8 8 7 7 7 9 5 2 1 2 2 2 2 2 2 3 3 2 2 2 1 1 1 1 2 3 3 2 3 3 3 3 3 3 3 3
2 2 2 5 5 4 5 5 4 2 3 4 7 7 2 2 2 2 3 2 2 2 2 2 2 2 2 2 1 1 1 1 2 3 3 3 3 3 3 3 3 3 3 3
4 2 2 3 2 3 3 2 2 2 3 1 2 4 3 2 3 3 2 1 2 2 2 2 2 3 2 2 1 1 1 2 2 2 2 2 3 3 3 3 3 3 2 3
4 3 2 1 2 4 5 5 4 2 5 5 4 5 4 3 3 4 3 3 2 3 3 2 2 2 2 2 1 1 1 1 2 2 2 2 3 3 3 3 3 2 2 2
3 2 1 1 1 2 5 8 7 1 3 7 6 6 5 4 3 5 5 5 4 4 3 2 2 3 2 2 1 2 1 1 1 1 1 2 2 3 3 3 2 1 2 2
3 2 0 1 2 3 6 9 5 2 5 8 6 5 5 3 3 4 5 5 4 3 3 2 2 2 2 2 2 2 1 0 1 1 2 2 2 2 3 2 2 2 2 2
1 1 1 0 1 4 7 5 3 4 6 6 6 5 4 4 4 4 4 4 5 5 4 3 3 3 3 2 2 2 1 1 1 2 3 2 2 2 3 3 2 2 2 2
1 1 1 2 2 3 4 3 5 5 6 6 6 6 4 4 5 5 5 4 4 4 4 4 3 4 4 4 2 2 1 1 2 3 3 2 2 2 2 3 2 2 2 2
3 3 1 2 4 5 5 6 6 6 6 7 6 6 5 4 5 5 5 4 5 5 4 4 4 4 4 5 3 2 1 2 3 2 2 2 2 2 2 1 1 1 2 2
4 3 2 3 5 6 6 7 7 8 7 7 7 7 6 5 5 5 4 4 4 4 4 4 3 3 3 4 4 3 2 3 3 2 2 1 1 1 1 1 1 1 2 3
3 2 2 3 4 4 7 7 8 7 7 7 7 8 7 6 5 5 4 4 4 4 4 4 4 4 4 4 4 4 3 2 2 1 1 1 0 0 0 0 2 2 2 3
Wind_Direction
162 169 217 217 213 225 216 229 252 258 250 229 246 260 266 258 246 246 242 235 233 235 233 206 191 186 177 169 171 173 167 166 156 152 155 162 179 189 185 175 165 161 161 161
135 236 236 217 205 231 244 257 262 277 257 240 267 270 266 250 241 234 230 230 230 231 227 205 189 182 180 179 181 179 179 174 173 176 171 168 168 182 186 168 153 165 165 165
213 235 214 196 207 220 238 236 245 257 307 276 286 285 258 251 238 233 226 223 224 219 218 208 197 196 188 188 188 188 186 180 177 169 145 111 99 85 123 175 182 172 168 166
238 250 223 213 222 209 247 234 236 244 256 270 230 279 269 244 251 239 232 224 227 228 219 207 195 195 198 199 192 185 182 179 176 167 164 162 170 183 203 196 184 163 165 167
241 230 218 224 229 203 229 217 219 232 224 263 229 243 276 243 248 246 233 222 224 222 210 207 200 195 197 193 188 184 177 177 172 168 170 171 177 183 167 157 156 161 169 167
253 247 217 222 225 201 192 93 28 217 179 249 222 208 270 223 224 232 227 221 221 215 204 203 198 178 180 177 176 173 172 174 171 170 169 172 173 170 162 165 172 179 194 196
290 270 255 188 134 143 149 133 349 286 229 242 192 203 249 243 225 217 223 226 218 207 193 191 188 184 179 175 174 174 172 173 172 172 173 178 180 177 182 183 183 184 192 214
263 274 247 224 204 198 200 178 186 214 230 268 215 225 250 261 243 224 213 204 197 201 198 197 198 192 188 183 176 177 178 176 173 174 176 177 176 178 189 187 185 189 199 207
246 265 291 269 253 172 180 205 190 164 245 260 251 269 298 303 305 239 201 173 199 215 212 205 203 190 187 182 182 181 179 176 179 177 172 171 174 175 179 182 179 181 185 183
248 277 284 282 225 224 190 166 142 179 207 249 267 255 248 273 266 237 207 218 246 231 188 204 188 194 188 176 164 161 162 171 174 171 175 175 176 175 170 166 169 172 177 167
289 260 299 304 210 216 164 179 181 192 202 200 254 267 232 230 234 225 224 220 220 218 286 341 333 84 154 138 141 146 147 141 150 163 166 160 169 164 156 164 177 171 163 164
274 229 267 258 256 230 195 200 175 196 231 206 226 268 309 294 298 257 304 339 31 46 41 45 45 59 66 104 142 150 152 150 152 146 146 157 159 157 160 167 175 165 158 160
282 266 314 321 333 14 231 219 204 207 199 200 211 259 341 25 24 17 18 16 27 40 45 46 48 46 39 66 123 147 141 142 136 133 132 131 144 157 163 169 167 155 147 147
293 223 220 240 264 275 277 272 235 189 217 237 234 259 301 346 358 359 3 11 23 31 33 32 40 33 14 10 88 137 140 137 139 137 140 146 155 159 153 144 140 145 144 150
31 255 254 268 277 273 268 268 249 229 228 233 256 258 278 309 317 330 359 11 15 19 16 7 0 8 16 8 3 55 149 143 144 145 151 160 153 143 137 130 128 124 125 133
346 258 278 284 279 273 285 284 254 247 253 253 269 278 296 309 353 2 352 349 334 341 344 346 344 350 357 348 330 307 238 185 153 156 161 149 135 133 132 131 129 126 120 120
252 236 268 276 291 314 302 299 269 255 264 236 250 264 317 339 327 299 290 296 290 308 326 330 323 313 307 303 300 264 242 180 157 159 156 151 141 138 142 138 130 133 133 125
219 228 238 273 325 251 264 330 322 291 333 313 282 297 298 289 296 304 319 307 306 306 305 311 319 324 321 319 326 311 158 151 153 148 147 150 143 141 139 135 139 137 131 136
214 197 224 239 249 285 317 343 338 300 323 347 321 323 331 344 4 350 358 5 324 305 303 299 308 324 333 337 354 54 99 121 132 153 159 162 152 142 138 141 145 133 130 129
37 107 155 259 239 282 306 321 321 334 332 355 348 332 334 358 345 310 336 348 344 343 348 355 8 12 8 353 39 83 85 101 171 200 175 157 145 143 145 148 140 115 127 134
3 7 334 265 261 283 317 328 355 58 312 332 336 337 344 327 288 300 330 344 357 358 357 21 43 30 9 15 65 73 69 8 296 83 107 103 109 129 136 130 123 126 118 117
279 318 302 281 280 288 331 1 20 308 325 340 341 341 341 333 336 346 354 354 2 7 13 32 41 22 11 27 75 79 43 354 53 83 91 92 88 104 115 115 110 117 130 132
259 245 245 208 233 300 331 338 328 341 340 339 341 337 344 349 351 352 355 360 4 8 18 29 41 27 15 16 59 93 7 53 75 81 78 78 78 82 106 120 126 126 138 154
326 343 328 300 301 320 337 344 352 353 346 339 343 345 356 359 355 358 0 5 9 8 17 28 40 33 14 7 26 47 49 68 80 84 74 73 82 73 76 96 127 148 171 181
310 333 335 301 308 327 345 351 342 344 351 356 358 359 360 5 2 3 6 8 11 9 13 25 33 28 12 11 24 30 40 66 69 70 72 75 75 92 81 56 201 207 216 216
335 311 289 283 305 307 312 327 337 343 345 350 356 357 360 7 6 7 9 7 11 13 15 19 21 24 19 21 24 19 25 52 70 66 63 80 87 88 105 20 341 321 288 278
Height
1477 1481 1479 1477 1478 1478 1480 1481 1480 1476 1473 1475 1473 1469 1464 1463 1463 1462 1461 1462 1462 1463 1465 1467 1468 1470 1472 1474 1476 1478 1480 1482 1483 1485 1487 1489 1491 1493 1495 1497 1499 1500 1502 1503
1479 1478 1472 1474 1477 1478 1479 1480 1478 1475 1473 1473 1471 1466 1461 1459 1458 1456 1456 1457 1458 1459 1460 1462 1464 1466 1468 1469 1472 1474 1476 1478 1480 1482 1484 1486 1488 1490 1492 1494 1495 1497 1499 1500
1474 1470 1469 1472 1475 1477 1476 1477 1475 1476 1473 1471 1472 1464 1458 1453 1452 1452 1452 1453 1454 1455 1456 1458 1459 1461 1463 1465 1468 1470 1472 1474 1477 1479 1481 1483 1485 1487 1489 1490 1492 1494 1496 1497
1472 1468 1469 1470 1471 1473 1473 1470 1472 1473 1476 1476 1472 1471 1455 1451 1450 1448 1448 1449 1450 1451 1452 1453 1455 1457 1459 1461 1464 1466 1468 1471 1473 1475 1477 1479 1481 1483 1485 1487 1489 1490 1492 1494
1468 1466 1467 1467 1466 1468 1468 1467 1470 1471 1474 1476 1473 1473 1456 1451 1449 1446 1445 1445 1446 1447 1448 1449 1451 1453 1455 1458 1460 1462 1464 1467 1469 1472 1474 1476 1479 1481 1483 1484 1485 1487 1489 1491
1466 1464 1463 1462 1462 1464 1465 1468 1471 1473 1475 1475 1468 1471 1456 1451 1444 1442 1442 1443 1444 1445 1446 1447 1448 1450 1452 1454 1457 1459 1461 1463 1466 1468 1471 1473 1475 1477 1479 1480 1482 1484 1486 1487
1467 1463 1461 1460 1462 1463 1465 1471 1477 1476 1476 1468 1462 1463 1453 1441 1439 1438 1439 1440 1441 1442 1443 1445 1446 1447 1449 1451 1453 1455 1457 1460 1462 1465 1467 1470 1472 1474 1475 1477 1479 1480 1482 1483
1471 1467 1461 1460 1461 1462 1463 1465 1472 1472 1470 1467 1462 1458 1446 1438 1435 1435 1436 1437 1438 1440 1441 1442 1443 1445 1447 1448 1450 1452 1454 1457 1459 1461 1464 1467 1469 1471 1473 1474 1476 1477 1479 1480
1472 1466 1459 1458 1457 1459 1462 1464 1462 1469 1472 1472 1461 1454 1444 1437 1435 1435 1435 1436 1436 1438 1439 1440 1442 1443 1445 1446 1448 1450 1452 1454 1456 1458 1461 1464 1466 1468 1469 1471 1473 1474 1476 1477
1472 1469 1460 1458 1457 1456 1458 1460 1465 1466 1465 1463 1454 1453 1446 1439 1436 1435 1435 1435 1435 1437 1438 1439 1440 1441 1443 1444 1446 1448 1450 1451 1453 1456 1458 1460 1462 1465 1467 1468 1469 1470 1472 1473
1472 1471 1464 1460 1458 1457 1459 1461 1460 1462 1461 1462 1459 1449 1438 1437 1434 1434 1434 1434 1435 1436 1437 1438 1439 1440 1441 1443 1444 1446 1447 1449 1451 1453 1455 1457 1459 1461 1463 1465 1466 1467 1468 1470
1472 1472 1468 1461 1456 1454 1455 1457 1460 1461 1461 1463 1461 1450 1435 1435 1434 1434 1434 1435 1435 1436 1436 1437 1438 1439 1440 1441 1442 1444 1445 1447 1449 1451 1452 1454 1457 1458 1460 1462 1463 1464 1465 1466
1472 1472 1470 1462 1461 1459 1457 1457 1458 1459 1461 1462 1460 1448 1436 1435 1435 1435 1435 1435 1435 1436 1436 1437 1437 1438 1439 1440 1441 1443 1444 1445 1447 1449 1450 1452 1454 1455 1457 1459 1460 1461 1462 1464
1468 1469 1470 1466 1460 1459 1458 1456 1456 1458 1460 1458 1453 1445 1438 1438 1437 1437 1437 1437 1437 1437 1437 1437 1437 1437 1439 1439 1440 1441 1442 1444 1445 1446 1448 1449 1451 1453 1454 1456 1457 1458 1459 1461
1469 1470 1467 1462 1458 1457 1455 1453 1453 1453 1452 1453 1446 1444 1438 1440 1439 1438 1438 1437 1437 1437 1437 1437 1437 1437 1438 1439 1439 1440 1441 1442 1443 1444 1446 1447 1448 1450 1452 1453 1454 1456 1457 1458
1469 1470 1466 1461 1455 1454 1453 1451 1449 1449 1448 1447 1445 1442 1439 1440 1439 1438 1437 1437 1437 1437 1437 1437 1437 1436 1436 1437 1438 1439 1439 1440 1441 1442 1443 1445 1446 1447 1449 1450 1452 1453 1454 1456
1470 1470 1467 1463 1456 1453 1455 1452 1448 1448 1446 1445 1444 1441 1440 1439 1438 1438 1437 1436 1436 1436 1437 1436 1436 1436 1436 1436 1437 1437 1438 1439 1439 1440 1441 1442 1444 1445 1446 1448 1449 1450 1452 1453
1468 1468 1467 1464 1460 1461 1454 1450 1448 1447 1445 1443 1441 1439 1438 1438 1437 1436 1436 1435 1435 1435 1435 1435 1434 1434 1435 1435 1436 1436 1437 1437 1438 1438 1439 1440 1442 1443 1444 1446 1447 1448 1450 1451
1464 1466 1466 1464 1461 1456 1452 1450 1449 1448 1446 1443 1442 1440 1439 1437 1435 1435 1435 1434 1434 1434 1434 1434 1433 1433 1434 1434 1434 1435 1435 1435 1436 1437 1438 1439 1440 1441 1442 1444 1445 1446 1448 1449
1464 1465 1467 1465 1463 1463 1457 1452 1447 1447 1447 1444 1443 1441 1439 1437 1438 1436 1434 1433 1433 1433 1432 1432 1432 1432 1432 1433 1433 1433 1434 1434 1435 1435 1436 1437 1438 1439 1441 1442 1443 1444 1446 1447
1470 1469 1470 1468 1466 1461 1458 1452 1448 1453 1452 1446 1443 1442 1440 1439 1439 1437 1434 1433 1432 1432 1432 1432 1431 1431 1431 1432 1432 1432 1433 1433 1434 1435 1435 1436 1437 1438 1439 1440 1442 1443 1444 1445
1471 1471 1470 1469 1470 1468 1458 1454 1455 1454 1450 1447 1444 1442 1440 1438 1437 1435 1433 1432 1431 1431 1431 1431 1430 1430 1431 1431 1431 1431 1432 1433 1433 1434 1434 1435 1436 1437 1438 1439 1440 1441 1442 1443
1470 1470 1467 1468 1469 1464 1460 1458 1456 1453 1450 1447 1445 1442 1440 1438 1436 1434 1433 1432 1431 1430 1430 1430 1430 1430 1430 1431 1431 1431 1431 1432 1432 1433 1433 1434 1435 1436 1437 1437 1438 1439 1440 1441
1471 1469 1468 1467 1464 1462 1460 1457 1455 1453 1451 1448 1446 1443 1440 1438 1436 1434 1433 1432 1431 1430 1430 1430 1430 1430 1430 1430 1430 1431 1431 1431 1431 1432 1433 1433 1434 1434 1435 1436 1437 1437 1438 1438
1473 1470 1469 1468 1464 1461 1458 1457 1455 1453 1451 1448 1446 1444 1441 1439 1437 1435 1433 1432 1431 1431 1431 1430 1430 1430 1430 1430 1430 1431 1430 1430 1430 1431 1432 1432 1433 1433 1433 1434 1435 1435 1436 1436
1474 1473 1471 1468 1466 1464 1461 1458 1456 1453 1451 1449 1446 1443 1442 1440 1438 1436 1434 1433 1432 1431 1431 1430 1430 1430 1429 1429 1429 1430 1430 1430 1430 1430 1431 1431 1431 1432 1432 1432 1433 1433 1434 1434